Starlink 5383

operational
NORAD ID: 54827 Int'l Des: 2022-177 Owner: SPXS Country: US Constellation: starlink
LEOCIRCULAR

About Starlink 5383

Description loading...

Live Position

Loading 3D Globe...

Upcoming Passes

Altitude History

Altitude vs Time

uPlot chart will show altitude changes over time

Two-Line Element Set

1 54827U 22177H 25301.58482410 .00001055 00000-0 93180-4 0 9994
2 54827 43.0020 131.1236 0001177 269.3167 90.7541 15.02533447157096
Epoch: Oct 28, 2025 • Age: 25 hours

Current Status

Altitude 567.6 km
Velocity 7.58 km/s
Sub-Earth Point -32.83°S, 85.8°E
Launch Date Dec 28, 2022
Age 2.8 years
Type internet

Technical Details

Classification Payload
Mass 305.00 kg
Dry Mass 290.00 kg
Total Mass 305.00 kg
Length 0.20 m
Diameter 2.80 m
Span 9.00 m
Shape Box + pan
Manufacturer SPXS
Bus Type Starlink
Phase Status In Orbit
Owner/State SPXS/US

Large Constellations

Loading constellations...